Location: Caltech
(34.1382°N, 118.1253°W)
Time: 08:32:41
(UTC-08:00)

PCSat - Visible Passes

Search period start: 20 January 2018 00:00
Search period end: 30 January 2018 00:00
Orbit: 786 x 794 km, 67.1° (Epoch: 19 January)

Date Brightness Start Highest point End Pass type
(mag) Time Alt. Az. Time Alt. Az. Time Alt. Az.
20 Jan 11.3 17:33:09 10° NNE 17:35:14 12° NE 17:37:19 10° ENE visible
20 Jan 9.4 19:13:54 10° NNW 19:19:21 89° ENE 19:19:59 71° SSE visible
21 Jan 9.5 18:43:03 10° NNW 18:48:26 64° ENE 18:52:42 16° SE visible
21 Jan 12.3 20:28:36 10° WNW 20:31:13 14° WSW 20:33:41 10° SW visible
22 Jan 9.8 18:12:17 10° NNW 18:17:29 45° ENE 18:22:38 10° SE visible
22 Jan 11.9 19:56:37 10° WNW 20:00:29 20° WSW 20:04:20 10° SSW visible
23 Jan 10.3 17:41:38 10° N 17:46:29 32° ENE 17:51:17 10° ESE visible
23 Jan 11.4 19:25:08 10° NW 19:29:44 29° WSW 19:34:19 10° SSW visible
24 Jan 10.8 18:53:52 10° NW 18:58:56 41° WSW 19:03:59 10° S visible
25 Jan 10.2 18:22:46 10° NNW 18:28:07 60° WSW 18:33:25 10° S visible
26 Jan 9.7 17:51:48 10° NNW 17:57:14 86° WSW 18:02:39 10° SSE visible
27 Jan 12.8 19:06:45 10° WNW 19:09:04 13° WSW 19:11:23 10° SW visible
28 Jan 13.0 06:18:22 10° SE 06:21:08 14° ESE 06:23:53 10° ENE visible
28 Jan 12.5 18:34:38 10° WNW 18:38:21 19° WSW 18:42:03 10° SSW visible
29 Jan 12.0 18:03:05 10° NW 18:07:36 27° WSW 18:12:06 10° SSW visible
